Printer-friendly version

IAU Minor Planet Center

Minor Planet Center

MPEC 2004-B11 : 2004 AE9

The following Minor Planet Electronic Circular may be linked-to from your own Web pages, but must not otherwise be redistributed electronically.


Read MPEC 2004-B10 Read MPEC 2004-B12


M.P.E.C. 2004-B11                                Issued 2004 Jan. 18, 19:02 UT

     The Minor Planet Electronic Circulars contain information on unusual
         minor planets and routine data on comets.  They are published
   on behalf of Commission 20 of the International Astronomical Union by the
          Minor Planet Center, Smithsonian Astrophysical Observatory,
                          Cambridge, MA 02138, U.S.A.

         Supported in part by the Steven and Michele Kirsch Foundation
             Prepared using the Tamkin Foundation Computer Network

                              MPC@CFA.HARVARD.EDU
          URL http://cfa-www.harvard.edu/iau/mpc.html  ISSN 1523-6714

                                   2004 AE9

Observations:
     K04A09E  C2003 12 18.48499 08 29 09.54 +15 50 26.9          19.1   EB011644
     K04A09E  C2003 12 18.50578 08 29 10.06 +15 50 23.5          19.6   EB011644
     K04A09E  C2003 12 18.52758 08 29 10.68 +15 50 19.8          19.4   EB011644
     K04A09E  C2003 12 22.51067 08 30 49.52 +15 40 40.5          20.2 V EB011691
     K04A09E  C2003 12 22.52463 08 30 49.78 +15 40 38.4          20.1 V EB011691
     K04A09E  C2003 12 22.53890 08 30 50.02 +15 40 36.8          20.2 V EB011691
     K04A09E* C2004 01 13.18832 08 31 36.16 +15 29 24.2          18.5 R EB011699
     K04A09E  C2004 01 13.20837 08 31 35.85 +15 29 23.8                 EB011699
     K04A09E  C2004 01 13.22838 08 31 35.56 +15 29 27.2                 EB011699
     K04A09E  C2004 01 13.24840 08 31 35.18 +15 29 29.0                 EB011699
     K04A09E  C2004 01 16.30103 08 30 49.50 +15 33 05.5          18.5   EB011644
     K04A09E  C2004 01 16.32164 08 30 49.09 +15 33 07.3          18.7   EB011644
     K04A09E  C2004 01 16.34440 08 30 48.64 +15 33 09.2          18.6   EB011644
     K04A09E  C2004 01 16.43932 08 30 46.69 +15 33 16.6          19.3 V EB011691
     K04A09E  C2004 01 16.46647 08 30 46.17 +15 33 18.6          19.2 V EB011691
     K04A09E  C2004 01 16.50158 08 30 45.50 +15 33 21.1          19.3 V EB011691
     K04A09E 5C2004 01 16.53924 08 30 44.87 +15 33 23.7          19.0 R EB011673
     K04A09E 5C2004 01 16.54260 08 30 44.81 +15 33 23.9                 EB011673
     K04A09E 5C2004 01 16.54606 08 30 44.75 +15 33 24.1                 EB011673
     K04A09E 5C2004 01 16.54988 08 30 44.68 +15 33 24.3                 EB011673
     K04A09E  C2004 01 16.89410 08 30 39.70 +15 33 51.7          17.9 R EB011A50
     K04A09E  C2004 01 16.89760 08 30 39.60 +15 33 52.4          18.1 R EB011A50
     K04A09E  C2004 01 16.90112 08 30 39.53 +15 33 52.3          17.9 R EB011A50
     K04A09E  C2004 01 16.90463 08 30 39.50 +15 33 53.4          18.2 R EB011A50
     K04A09E  C2004 01 16.90796 08 30 39.58 +15 33 52.0          18.9 R EB011J95
     K04A09E  C2004 01 16.90815 08 30 39.47 +15 33 52.9          18.0 R EB011A50
     K04A09E  C2004 01 16.91166 08 30 39.39 +15 33 53.1          18.0 R EB011A50
     K04A09E  C2004 01 16.91408 08 30 39.48 +15 33 52.8          19.0 R EB011J95
     K04A09E  C2004 01 16.92027 08 30 39.33 +15 33 53.1          18.8 R EB011J95
     K04A09E  C2004 01 16.93503 08 30 39.07 +15 33 56.7          18.5 R EB011620
     K04A09E  C2004 01 16.95505 08 30 38.73 +15 33 58.8          18.8 R EB011620
     K04A09E  C2004 01 17.22515 08 30 34.07 +15 34 21.6          18.1 R EB011H88
     K04A09E  C2004 01 17.22947 08 30 33.91 +15 34 22.6          18.1 R EB011H88
     K04A09E  C2004 01 17.23378 08 30 33.78 +15 34 23.3          18.3 R EB011H88
     K04A09E  C2004 01 17.25220 08 30 33.80 +15 34 25.4          19.2 V EB011691
     K04A09E  C2004 01 17.25601 08 30 33.76 +15 34 25.5          18.9   EB011644
     K04A09E  C2004 01 17.27309 08 30 33.38 +15 34 27.4          19.2 V EB011691
     K04A09E  C2004 01 17.27681 08 30 33.33 +15 34 27.6          18.8   EB011644
     K04A09E  C2004 01 17.29203 08 30 32.98 +15 34 29.0          19.3 V EB011691
     K04A09E  C2004 01 17.31501 08 30 32.56 +15 34 30.9          18.9   EB011644
     K04A09E  C2004 01 17.99830 08 30 20.71 +15 35 29.2          19.3 R EB011J95
     K04A09E  C2004 01 18.00740 08 30 20.51 +15 35 30.1          19.1 R EB011J95
     K04A09E  C2004 01 18.01666 08 30 20.30 +15 35 30.7          18.6 R EB011J95
     K04A09E  C2004 01 18.02409 08 30 20.20 +15 35 31.6          18.5 R EB011966
     K04A09E  C2004 01 18.04432 08 30 19.81 +15 35 33.6          18.6 R EB011966
     K04A09E  C2004 01 18.11965 08 30 18.52 +15 35 52.3          18.6 R EB011859
     K04A09E  C2004 01 18.12610 08 30 18.43 +15 35 53.3          18.7 R EB011859
     K04A09E  C2004 01 18.13162 08 30 18.34 +15 35 53.5          19.0 R EB011859
     K04A09E  C2004 01 18.23420 08 30 16.84 +15 35 53.6          19.1 V EB011691
     K04A09E  C2004 01 18.26666 08 30 16.16 +15 35 56.9          19.2 V EB011691
     K04A09E  C2004 01 18.30048 08 30 15.44 +15 36 00.3          19.2 V EB011691

Observer details:
620 Observatorio Astronomico de Mallorca.  Observers S. Sanchez, R. Stoss,
    J. Nomen.  0.30-m f/9 Schmidt-Cassegrain + CCD.
644 Palomar Mountain/NEAT.  Observers S. Pravdo, D. MacDonald, K. Lawrence,
    M. Hicks.  1.2-m Schmidt + CCD.
673 Table Mountain Observatory, Wrightwood.  Observer J. Young.  0.6-m
    reflector + CCD.
691 Steward Observatory, Kitt Peak.  Observers A. F. Tubbiolo, A. E. Gleason,
    M. Block.  0.9-m f/3 reflector + CCD.
699 Lowell Observatory-LONEOS.  Observer B. A. Skiff.  0.59-m LONEOS Schmidt
    + CCD.
859 Wykrota Observatory-CEAMIG.  Observer C. Jacques.  0.30-m f/3.0
    Schmidt-Cassegrain + CCD.
966 Church Stretton.  Observer S. P. Laurie.  0.35-m Schmidt-Cassegrain + CCD.
A50 Andrushivka Astronomical Observatory.  Observers Y. Ivashchenko,
    O. Gerashchenko, V. Lokot, O. Naumov.  0.6-m reflector + CCD.
H88 Hope Observatory, Belcamp.  Observer I. Griffin.  0.35-m Schmidt-Cassegrain
    + CCD.  Long. & Parallax = 283.7577, 0.77295, +0.63235.
J95 Great Shefford.  Observer P. Birtwhistle.  0.30-m f/6.3 Schmidt-Cassegrain
    + CCD.

Orbital elements:
2004 AE9
Epoch 2003 Dec. 27.0 TT = JDT 2453000.5                 MPC
M 359.12756              (2000.0)            P               Q
n   0.08459929     Peri.  286.16918     -0.42781107     -0.90385659
a   5.1391533      Node   189.16355     +0.83987461     -0.39564591
e   0.6438451      Incl.    1.64669     +0.33404839     -0.16281146
P  11.65           H   17.4           G   0.15           U   5
Residuals in seconds of arc
031218 644  0.0   0.2+    040116 673  0.1+  0.2+    040117 691  0.1+  0.1+
031218 644  0.2-  0.3+    040116 673  0.1+  0.1+    040117 644  0.0   0.2+
031218 644  0.6+  0.3+    040116 673  0.1+  0.0     040117 691  0.2+  0.1+
031222 691  0.1-  0.2-    040116 A50  0.4+  0.2-    040117 644  0.1-  0.3+
031222 691  0.0   0.4-    040116 A50  0.0   0.2+    040117 691  0.0   0.1-
031222 691  0.3-  0.1-    040116 A50  0.0   0.2-    040117 644  0.1+  0.0
040113 699  0.2-  0.1-    040116 A50  0.5+  0.6+    040117 J95  0.1+  0.0
040113 699  0.2-  1.9-    040116 J95  0.2-  0.4-    040118 J95  0.2-  0.0
040113 699  0.2+  0.1+    040116 A50  1.1+  0.2-    040118 J95  0.5-  0.2-
040113 699  0.6-  0.5+    040116 A50  0.9+  0.4-    040118 966  0.1+  0.1+
040116 644  0.0   0.2+    040116 J95  0.0   0.2-    040118 966  0.4+  0.3+
040116 644  0.1-  0.2+    040116 J95  0.5-  0.5-    040118 859  1.3-  0.0
040116 644  0.0   0.2+    040116 620  0.6-  0.1-    040118 859  0.6-  0.4+
040116 691  0.1-  0.0     040116 620  0.2+  0.2+    040118 859  0.1-  0.1+
040116 691  0.0   0.0     040117 H88  1.1+  0.5-    040118 691  0.1+  0.0
040116 691  0.1-  0.1+    040117 H88  0.1+  0.1+    040118 691  0.1+  0.0
040116 673  0.1+  0.2+    040117 H88  0.6-  0.5+    040118 691  0.0   0.1+

Ephemeris:
2004 AE9                 a,e,i = 5.14, 0.64, 2                   q = 1.8303
Date    TT    R. A. (2000) Decl.     Delta      r     Elong.  Phase     V
2004 01 16    08 30.90   +15 32.7    0.859    1.833   168.5     6.2    18.9
2004 01 26    08 27.80   +15 50.5    0.857    1.841   176.8     1.7    18.6
2004 02 05    08 24.86   +16 13.1    0.878    1.855   168.8     5.9    18.9
2004 02 15    08 23.41   +16 34.5    0.920    1.874   158.4    11.2    19.3
2004 02 25    08 24.39   +16 49.9    0.982    1.899   148.6    15.8    19.6
2004 03 06    08 28.26   +16 55.8    1.062    1.928   139.5    19.5    19.9
2004 03 16    08 34.94   +16 50.3    1.158    1.961   131.1    22.5    20.3
2004 03 26    08 44.11   +16 32.9    1.268    1.999   123.4    24.6    20.6
2004 04 05    08 55.35   +16 03.5    1.390    2.040   116.2    26.1    20.8
2004 04 15    09 08.15   +15 22.7    1.522    2.085   109.6    27.0    21.1
2004 04 25    09 22.14   +14 31.4    1.663    2.133   103.3    27.3    21.4
2004 05 05    09 36.94   +13 30.5    1.812    2.183    97.3    27.3    21.6
2004 05 15    09 52.27   +12 21.5    1.967    2.236    91.6    26.9    21.8
2004 05 25    10 07.92   +11 05.3    2.127    2.291    86.0    26.2    22.0

Timothy B. Spahr             (C) Copyright 2004 MPC           M.P.E.C. 2004-B11

Read MPEC 2004-B10 Read MPEC 2004-B12


Our Web policy. Index to the CBAT/MPC/ICQ pages.


Valid HTML 4.01!